[[{"header":{"parameterUnit":"m.s-1","parameterCategory":1,"la1":30.2991,"la2":30.254,"lo1":-89.0895,"lo2":-89.0444,"dy":0.0017,"dx":0.0017,"nx":28,"ny":28,"refTime":"2025-12-10T03:00:00:Z","depth":0,"parameterNumber":2,"parameterNumberName":"U-component_of_WINDS"},"data":[0,0,0,0,0,0,0,0,0,0,0,0,0,0,0,0,0,0,0,0,0,0,0,0,0,0,0,0,0,0,0,0,0,0,0,0,0,0,0,0,0,0,0,0,0,0,0,0,0,0,0,0,0,0,0,0,0,0,1.346,1.346,0,1.3504,1.3505,1.3505,1.3473,1.3472,1.3471,1.3469,1.3515,1.3517,1.352,0,0,0,0,0,0,0,0,0,0,0,0,0,1.3344,1.3346,1.3459,1.346,1.3461,1.3504,1.3505,1.3506,1.3474,1.3472,1.347,1.3469,1.3514,1.3517,1.352,0,0,0,0,0,0,0,0,0,0,0,0,0,1.3392,1.3347,1.3459,1.345,1.345,1.3504,1.3505,1.3506,1.3474,1.3472,1.347,1.3468,1.3513,1.3517,1.352,1.3587,0,0,1.3532,1.3534,0,0,0,0,0,0,0,0,1.3389,1.3396,1.3451,1.3451,1.345,1.3481,1.3481,1.3533,1.3475,1.3465,1.3469,1.3467,1.3505,1.351,1.3523,1.3589,1.3591,1.3532,1.3535,1.3536,1.3537,0,0,0,0,0,0,0,1.3386,1.3394,1.3477,1.3452,1.3451,1.3443,1.3447,1.3491,1.3496,1.3465,1.3463,1.3469,1.3505,1.3519,1.3524,1.3591,1.3532,1.3536,1.3538,1.354,1.3711,1.3713,0,0,0,0,0,0,1.3384,1.3392,1.3476,1.3479,1.3414,1.3447,1.3452,1.3473,1.3496,1.3497,1.3471,1.3467,1.3514,1.3519,1.3525,1.3602,1.3536,1.354,1.3542,1.3709,1.3712,1.3714,0,0,0,0,0,0,1.3381,1.3392,1.3474,1.3434,1.3444,1.3451,1.3476,1.3475,1.349,1.35,1.3501,1.3485,1.3512,1.352,1.3571,1.3603,1.3542,1.3545,1.3706,1.371,1.3713,1.3758,0,0,0,0,0,0,1.3378,1.3391,1.3417,1.3435,1.3447,1.352,1.3478,1.3478,1.3496,1.3492,1.3513,1.3514,1.3511,1.3565,1.3575,1.3607,1.3548,1.3703,1.3708,1.3712,1.3753,1.3762,1.377,0,0,0,0,0,1.3374,1.3428,1.3418,1.3429,1.3479,1.3522,1.3528,1.3524,1.3499,1.3525,1.3531,1.3514,1.3598,1.3571,1.3581,1.3615,1.3701,1.3706,1.3711,1.375,1.3761,1.377,0,0,0,0,0,0,1.3414,1.3431,1.342,1.3482,1.35,1.3516,1.3549,1.3536,1.3562,1.3557,1.355,1.3555,1.3608,1.3617,1.3586,1.3679,1.3646,1.3653,1.3671,1.3682,1.369,1.3686,1.3551,0,0,0,0,0,1.343,1.3463,1.3476,1.3529,1.3539,1.3542,1.3561,1.3555,1.3575,1.3583,1.3593,1.3612,1.3642,1.3663,1.3692,1.3755,1.3758,1.3783,1.3791,1.3798,1.3804,1.3836,1.3847,1.3731,1.3731,1.3731,0,0,1.3463,1.3476,1.3498,1.3537,1.3552,1.3586,1.3549,1.3588,1.3612,1.3588,1.3637,1.3645,1.3665,1.3722,1.3748,1.3731,1.3837,1.3805,1.381,1.3812,1.3842,1.3853,1.3863,1.3734,1.3734,1.3733,0,0,1.354,1.3555,1.3599,1.3614,1.3635,1.3637,1.3647,1.3665,1.3669,1.3718,1.3699,1.3729,1.3782,1.3797,1.3812,1.3892,1.3877,1.3902,1.3945,1.3976,1.3985,1.3993,1.402,1.403,1.3908,1.3908,1.3909,0,1.3579,1.363,1.3624,1.3663,1.368,1.3659,1.3703,1.3718,1.3748,1.3759,1.3741,1.3806,1.3818,1.3877,1.3896,1.391,1.392,1.3899,1.3984,1.3992,1.3999,1.4025,1.4035,1.3911,1.3911,1.3911,1.391,0,1.3675,1.3711,1.3744,1.3773,1.3793,1.3835,1.3834,1.3856,1.3848,1.3851,1.39,1.3914,1.3944,1.3958,1.3951,1.4015,1.4004,1.3985,1.3951,1.4013,1.4037,1.4047,1.3915,1.3914,1.3913,1.3913,0,0,1.378,1.3803,1.3815,1.3827,1.3848,1.3875,1.3915,1.3944,1.3962,1.3983,1.4015,1.4059,1.4041,1.4058,1.4052,1.408,1.414,1.4057,1.4057,1.407,1.4209,1.4222,1.4234,1.413,1.4132,1.4133,1.4206,0,1.3857,1.3926,1.3921,1.3986,1.4017,1.3997,1.4031,1.4047,1.4051,1.4077,1.4081,1.4112,1.4087,1.4096,1.4122,1.4127,1.4167,1.4122,1.4158,1.416,1.4153,1.4246,1.4261,1.4329,1.4216,1.4217,1.4219,0,1.3956,1.398,1.4048,1.4062,1.4075,1.4106,1.4131,1.4157,1.4174,1.4175,1.4192,1.4182,1.422,1.4186,1.4238,1.4207,1.4222,1.4226,1.4228,1.4231,1.4192,1.425,1.4351,1.4361,1.4234,1.4232,1.4231,0,1.4023,1.4072,1.4118,1.4129,1.4147,1.4169,1.4177,1.4193,1.421,1.4232,1.4242,1.4269,1.4283,1.4303,1.4299,1.4275,1.4352,1.4318,1.4352,1.4352,1.4369,1.4367,1.4472,1.438,1.438,1.438,1.438,0,1.4109,1.4151,1.4148,1.4176,1.4222,1.4215,1.426,1.4266,1.4279,1.4307,1.4292,1.4319,1.4313,1.4339,1.4336,1.4379,1.4386,1.4386,1.4385,1.4387,1.4387,1.4395,1.439,1.4383,1.4382,1.4382,1.4381,0,1.4192,1.4192,1.424,1.4253,1.4257,1.429,1.43,1.4326,1.4328,1.4364,1.4372,1.4374,1.4404,1.4402,1.4437,1.4435,1.4486,1.448,1.448,1.4478,1.4512,1.4508,1.4625,1.464,1.454,1.4541,1.4542,0,1.4246,1.4278,1.4293,1.4311,1.432,1.4349,1.4366,1.436,1.4378,1.4399,1.4422,1.445,1.4473,1.4521,1.4526,1.4551,1.4544,1.4584,1.4548,1.4548,1.4543,1.454,1.4543,1.459,1.4591,1.4592,1.4593,0,1.4342,1.434,1.4365,1.4389,1.441,1.4429,1.4447,1.4462,1.4457,1.4478,1.4508,1.4525,1.4559,1.4587,1.4611,1.4619,1.4605,1.4604,1.4613,1.4615,1.4613,1.4613,1.4498,1.4601,1.4601,1.46,1.4599,1.4599,1.4411,1.4437,1.4451,1.4479,1.4491,1.4507,1.4532,1.4536,1.4561,1.4588,1.4582,1.4615,1.463,1.466,1.467,1.4695,1.4681,1.4695,1.4698,1.4701,1.4704,1.461,1.47,1.47,1.47,1.4699,1.4699,0,1.4504,1.4512,1.4538,1.4562,1.4583,1.4568,1.4586,1.4605,1.4634,1.4649,1.467,1.4704,1.473,1.4736,1.4761,1.478,1.4774,1.4786,1.4784,1.4786,1.4716,1.4705,1.479,1.479,1.479,1.479,1.479,1.479,1.4555,1.4598,1.4597,1.4645,1.4652,1.4684,1.4695,1.471,1.4721,1.4759,1.478,1.4784,1.4794,1.4819,1.4842,1.4843,1.4852,1.4867,1.4865,1.48,1.4791,1.4782,1.4772,1.487,1.487,1.4932,1.4933,1.4934]},{"header":{"parameterUnit":"m.s-1","parameterCategory":1,"la1":30.2991,"la2":30.254,"lo1":-89.0895,"lo2":-89.0444,"dy":0.0017,"dx":0.0017,"nx":28,"ny":28,"refTime":"2025-12-10T03:00:00:Z","depth":0,"parameterNumber":3,"parameterNumberName":"V-component_of_WINDS"},"data":[0,0,0,0,0,0,0,0,0,0,0,0,0,0,0,0,0,0,0,0,0,0,0,0,0,0,0,0,0,0,0,0,0,0,0,0,0,0,0,0,0,0,0,0,0,0,0,0,0,0,0,0,0,0,0,0,0,0,3.6103,3.6104,0,3.6217,3.6218,3.622,3.6182,3.6179,3.6177,3.6175,3.6282,3.6287,3.6292,0,0,0,0,0,0,0,0,0,0,0,0,0,3.584,3.5845,3.6103,3.6104,3.6106,3.6217,3.6218,3.622,3.6182,3.6179,3.6176,3.6174,3.628,3.6286,3.6292,0,0,0,0,0,0,0,0,0,0,0,0,0,3.5954,3.5846,3.6102,3.61,3.6101,3.6217,3.6218,3.622,3.6183,3.6179,3.6176,3.6172,3.6278,3.6286,3.6293,3.6414,0,0,3.6317,3.632,0,0,0,0,0,0,0,0,3.5947,3.5963,3.6099,3.6101,3.6102,3.6182,3.6165,3.6285,3.6184,3.6152,3.6175,3.617,3.6251,3.6261,3.629,3.6419,3.6424,3.6317,3.6322,3.6325,3.6328,0,0,0,0,0,0,0,3.5939,3.5958,3.6147,3.6101,3.6103,3.609,3.6102,3.6187,3.622,3.6154,3.6152,3.6166,3.6251,3.6282,3.6292,3.6425,3.6317,3.6324,3.6329,3.6332,3.6655,3.6658,0,0,0,0,0,0,3.5932,3.5952,3.6144,3.6151,3.6014,3.6098,3.6111,3.616,3.6219,3.6225,3.6169,3.6164,3.6271,3.6283,3.6296,3.6438,3.6325,3.6333,3.6337,3.6651,3.6656,3.666,0,0,0,0,0,0,3.5927,3.595,3.6139,3.6051,3.6074,3.6106,3.6161,3.6164,3.6195,3.6231,3.6235,3.6197,3.6269,3.6285,3.6385,3.6441,3.6336,3.6343,3.6646,3.6652,3.6658,3.6726,0,0,0,0,0,0,3.5919,3.5948,3.5997,3.6052,3.6079,3.623,3.6164,3.6169,3.621,3.6204,3.6257,3.6262,3.6267,3.6373,3.6392,3.645,3.6349,3.6641,3.6649,3.6656,3.6719,3.6734,3.6746,0,0,0,0,0,3.591,3.6011,3.6,3.6024,3.6142,3.6234,3.6248,3.6255,3.6215,3.6262,3.6284,3.6261,3.6433,3.6384,3.6405,3.6466,3.6637,3.6647,3.6655,3.6713,3.6731,3.6746,0,0,0,0,0,0,3.5959,3.6018,3.6007,3.6129,3.6177,3.6227,3.6288,3.6274,3.6332,3.6323,3.6325,3.6337,3.6439,3.6463,3.6407,3.6584,3.6528,3.6542,3.6565,3.6582,3.6596,3.6587,3.6355,0,0,0,0,0,3.5984,3.6058,3.6104,3.6207,3.6232,3.6256,3.6296,3.6297,3.6345,3.6364,3.6393,3.6438,3.6501,3.6543,3.6604,3.6722,3.6731,3.6774,3.6788,3.6799,3.681,3.687,3.6888,3.6689,3.6689,3.6689,0,0,3.6036,3.6078,3.6124,3.6218,3.6255,3.6326,3.6273,3.6352,3.6404,3.6375,3.6471,3.6494,3.6544,3.6652,3.6702,3.6675,3.6867,3.681,3.6819,3.6824,3.6881,3.69,3.6916,3.6695,3.6694,3.6693,0,0,3.6168,3.6209,3.6298,3.6336,3.6394,3.6409,3.643,3.6482,3.6497,3.6595,3.6573,3.6633,3.6744,3.6779,3.6811,3.6954,3.6932,3.6973,3.7044,3.7103,3.7118,3.7132,3.7179,3.7197,3.6984,3.6985,3.6985,0,3.6225,3.6336,3.6344,3.6425,3.6464,3.6444,3.6531,3.6567,3.664,3.6666,3.6636,3.6773,3.6805,3.692,3.6955,3.6983,3.7003,3.6967,3.7116,3.713,3.7143,3.7188,3.7206,3.6989,3.6988,3.6988,3.6988,0,3.6401,3.6478,3.6542,3.6616,3.6663,3.6746,3.6763,3.6809,3.6805,3.6821,3.6918,3.6956,3.7023,3.705,3.7046,3.7163,3.7145,3.7116,3.706,3.7166,3.7208,3.7226,3.6995,3.6994,3.6992,3.6991,0,0,3.6567,3.6643,3.6666,3.6698,3.6759,3.6817,3.6897,3.6965,3.7003,3.7053,3.7117,3.7211,3.7184,3.722,3.722,3.7272,3.7377,3.7235,3.7236,3.7258,3.7504,3.7524,3.7545,3.7364,3.7368,3.7371,3.7499,0,3.6701,3.6846,3.6855,3.6984,3.7053,3.7033,3.7102,3.7145,3.7162,3.7219,3.7236,3.7302,3.7263,3.7284,3.7335,3.7354,3.7426,3.7345,3.742,3.7423,3.7407,3.7567,3.7589,3.7709,3.7516,3.7519,3.7521,0,3.6878,3.6936,3.7073,3.7122,3.7151,3.7214,3.7274,3.7331,3.7377,3.7385,3.7426,3.7417,3.7495,3.7438,3.7542,3.7487,3.7517,3.7531,3.7536,3.7541,3.7477,3.7574,3.7748,3.7765,3.7548,3.7546,3.7544,0,3.6981,3.7093,3.7189,3.7217,3.7277,3.7321,3.7347,3.739,3.7429,3.7481,3.7506,3.7566,3.7597,3.7642,3.7647,3.7606,3.7751,3.7695,3.7756,3.7756,3.7786,3.7784,3.7965,3.7811,3.7811,3.781,3.781,0,3.7129,3.7213,3.7236,3.7295,3.7386,3.7393,3.7482,3.7505,3.7543,3.7602,3.7588,3.7643,3.7649,3.7705,3.771,3.7793,3.7808,3.7814,3.7814,3.7814,3.7813,3.7833,3.7824,3.7815,3.7814,3.7813,3.7812,0,3.7259,3.7279,3.7382,3.743,3.7444,3.7509,3.7549,3.7602,3.7618,3.7693,3.771,3.7733,3.7798,3.7809,3.7884,3.7887,3.7986,3.7979,3.7972,3.797,3.8029,3.8022,3.8227,3.8252,3.8084,3.8086,3.8087,0,3.7352,3.7416,3.7471,3.7512,3.7541,3.7606,3.7646,3.7654,3.7695,3.7751,3.7797,3.7861,3.7912,3.8015,3.8036,3.8093,3.8085,3.8152,3.8093,3.809,3.8082,3.8077,3.8082,3.8163,3.8165,3.8166,3.8168,0,3.7512,3.7518,3.7578,3.7641,3.769,3.7739,3.7786,3.7818,3.7831,3.7878,3.7945,3.7985,3.8063,3.8124,3.818,3.8203,3.8186,3.8187,3.8203,3.8203,3.8195,3.8197,3.8,3.8181,3.818,3.8179,3.8178,3.8178,3.7624,3.7679,3.7726,3.7793,3.7829,3.7872,3.7924,3.7946,3.8004,3.8069,3.8069,3.8142,3.8182,3.8256,3.8282,3.8336,3.8314,3.8339,3.8344,3.835,3.8354,3.8189,3.8347,3.8346,3.8346,3.8346,3.8345,0,3.7781,3.781,3.7872,3.7938,3.7989,3.7972,3.8021,3.8064,3.8129,3.817,3.8221,3.8296,3.8355,3.8381,3.8438,3.8476,3.847,3.8491,3.8486,3.8491,3.8372,3.8351,3.8495,3.8495,3.8495,3.8495,3.8495,3.8495,3.7868,3.796,3.7971,3.8078,3.8105,3.8179,3.8208,3.8246,3.8278,3.8364,3.8414,3.8431,3.8464,3.8524,3.8576,3.8581,3.8601,3.8625,3.8627,3.8515,3.85,3.8485,3.8465,3.8631,3.8631,3.8741,3.8742,3.8743]}]]